STARLINK-33799, 63447

Orbit data source: Space-Track

STARLINK-33799, 63447 is a payload satellite owned by SpaceX/Seattle (US) in LEO that was launched on Fri, 04 Apr 2025 UTC via an FALCON 9 launch vehicle from the Air Force Western Test Range (AFWTR). Payload-class satellites include a variety of spacecraft equipped with specific instruments for various scientific and technological missions. These include communications satellites like Starlink; space stations such as the ISS; scientific satellites like the Hubble; Earth observation satellites from companies like Planet Labs, Umbra, and HawkEye 360; GPS; miniature CubeSats for education and research; and military/defense satellites.

Loading next visibility...
Identifier
63447, 2025-069Q
Orbit
LEO
Country
Flag of USUS
Related business
Manufacturer
SpaceX/Seattle
Mission
Operational Commercial Communications
Bus & Motor
STARLINK V2MO, Unknown motor
Mass
575 kg wet, ~530 kg dry
Launch date (UTC)
2025-04-04 (8 months ago)
Launch vehicle
FALCON 9
Launch site
Air Force Western Test Range (AFWTR)
Object type
Payload
Rocket body
Debris
Shape & HBR
Box + 2 Pan, 17.7 m
Radar Cross Section
36.964 m², Large (>1 m²)

Expand to show TLE details & history
Last TLE update: 20 hours ago

TLE from 20 hours ago
0 STARLINK-33799
1 63447U 25069Q   25348.79866666  .00015453  00000-0  53275-3 0  9995
2 63447  53.1584 177.0628 0001262  89.7574 270.3571 15.30201726 40291
Epoch: 2025-12-14T19:10Z
TLE epoch observation values (Epoch: 2025-12-14T19:10:04.799Z)
Latitude
-0.00005°
Longitude
165.83636°
Altitude
476.104 km
Speed
7.629 km/s
True Right ascension
11h 48m 15s
True Declination
0° 00' 00"
Sunlit
Object was in daylight at epoch
Visualization orbit readout
Latitude
Unknown
Longitude
Unknown
Altitude
Unknown
Speed
Unknown
Apparent Right ascension
Unknown
Apparent Declination
Unknown
Sunlit
N/A
Visualization observer readout
Local Sidereal Time
13:20:30
Azimuth
Unknown
Elevation
Unknown
Doppler factor
Unknown
Orbital elements
Apogee altitude
476.332 km
Perigee altitude
474.602 km
Semi-major axis
6,853.604 km
Eccentricity
0.00013
Inclination
53.1584°
RAAN
177.0628°
Arg. of periapsis
89.7574°
True anomaly
270.34264°
Mean anomaly
270.3571°
Eccentric anomaly
270.34987°
Mean motion
3.82529 °/min
Orbital period
94.11 mins
BSTAR
0.00053275
Loading maneuver chart data...
Computing Atmospheric mass density...
Loading historical data...
Loading historical data...
Loading historical data...
Loading historical data...
Loading historical data...
Loading historical data...
Loading historical data...

Documentation

Showing up to 5 results
|